Theta_e
317 318 319 319 320 322 321 316 314 310 307 305 304 302 301 301 306 308 309 305 310 319 320 320 319 319 318 317 317 315 315 314 314 314 314 314 314 314 314 314 314 314 314
318 317 317 317 319 321 320 316 314 309 307 304 301 299 298 297 299 303 306 306 305 309 316 318 318 318 317 315 314 314 314 313 312 312 312 312 311 311 312 312 312 311 312
317 317 316 316 317 318 317 316 313 304 299 297 295 296 297 296 296 298 303 304 304 304 307 311 316 315 314 315 314 312 312 311 311 311 310 310 311 310 310 310 310 310 310
316 316 315 315 316 316 316 315 307 300 296 294 292 292 293 295 295 297 299 301 302 302 304 305 308 313 313 312 312 311 311 310 309 309 309 309 309 309 309 308 308 308 308
314 314 315 315 316 316 314 314 306 300 295 293 292 291 291 292 294 294 296 298 298 299 300 302 302 304 309 309 310 309 309 309 308 308 307 307 307 307 307 307 307 307 307
313 313 313 314 314 314 314 313 306 299 295 293 290 288 288 289 292 293 292 295 296 297 298 299 300 300 304 307 307 307 307 307 306 306 306 306 306 306 305 305 306 305 305
312 312 312 312 312 311 313 313 301 295 293 292 289 287 287 288 289 291 291 292 292 294 294 296 297 298 299 302 304 304 305 305 304 304 304 304 304 304 304 304 304 304 304
311 311 311 311 311 310 311 310 300 295 294 292 293 290 286 287 288 290 290 289 289 290 291 291 293 294 295 297 298 300 301 302 302 302 302 302 302 302 302 302 302 302 302
308 308 308 309 310 309 308 309 301 298 295 292 294 296 291 293 289 289 288 288 287 288 289 289 289 290 292 294 295 295 295 297 298 299 299 299 300 300 300 300 300 300 300
304 305 305 307 308 308 307 308 307 301 301 294 294 297 298 296 290 286 288 287 288 287 288 288 287 288 289 291 290 291 292 293 294 295 295 296 296 297 298 298 298 298 298
303 302 303 304 305 307 307 307 307 305 304 300 296 297 296 293 293 290 286 284 286 286 287 287 287 286 287 288 290 291 291 292 292 291 292 292 293 294 294 295 296 296 297
303 301 301 302 304 305 305 305 305 305 304 303 301 299 296 293 290 288 287 285 284 285 286 286 286 286 286 286 287 286 288 290 291 290 290 290 290 291 292 293 293 294 294
304 302 300 300 301 304 304 304 303 303 303 303 301 301 299 298 294 291 289 284 284 285 284 285 285 286 285 285 285 284 286 288 290 290 289 289 290 290 291 291 291 292 293
308 305 300 299 300 302 303 302 300 300 300 300 302 301 300 299 297 295 290 286 282 283 283 284 285 285 285 285 286 284 283 286 288 289 289 289 289 290 290 291 291 291 292
308 306 303 299 298 300 300 299 298 297 297 297 297 298 300 298 296 294 292 290 293 287 283 285 283 285 284 284 284 283 281 284 286 287 288 288 289 289 290 291 291 290 291
308 307 303 300 298 298 298 297 296 296 294 293 292 292 294 295 294 292 292 292 291 291 290 289 285 284 284 283 284 283 282 285 284 285 286 287 287 288 289 290 290 290 290
307 305 304 301 298 296 296 294 293 293 291 290 290 288 288 289 288 288 289 290 290 290 287 284 284 284 282 281 282 281 282 281 281 284 285 285 286 287 288 289 289 289 289
305 305 304 302 298 295 295 293 292 291 290 288 288 287 285 286 285 285 286 286 287 288 285 283 281 281 281 282 281 280 280 281 281 284 285 285 286 286 287 287 288 288 288
302 302 301 300 297 295 294 292 291 290 289 288 287 286 285 284 282 283 283 284 285 285 283 282 280 281 281 281 280 280 280 280 280 282 284 284 285 286 286 286 287 287 286
299 299 299 299 297 296 293 292 289 289 288 288 287 286 285 284 282 281 281 282 283 282 281 280 280 279 279 280 279 278 277 279 278 280 281 282 282 283 284 285 285 285 284
296 297 297 297 297 295 294 291 290 287 287 286 286 285 284 284 284 283 281 280 280 280 279 279 278 278 277 277 276 278 277 278 279 280 279 279 279 280 280 283 283 283 284
294 294 294 294 293 293 290 291 290 288 286 285 285 284 283 283 282 283 284 283 281 279 278 278 278 277 277 277 278 278 277 277 275 280 277 277 279 278 279 280 283 284 284
293 292 292 292 292 292 292 291 289 288 286 285 284 283 282 281 281 281 283 283 283 283 283 280 278 278 278 278 278 277 277 277 276 278 277 275 279 278 279 279 283 283 283
291 291 290 291 291 291 292 291 288 286 286 285 284 283 282 280 280 280 280 280 280 280 281 280 279 279 279 279 278 278 278 278 278 278 278 273 277 276 278 278 281 282 283
290 290 289 289 289 289 290 290 289 286 284 284 283 282 282 281 281 282 279 278 278 279 282 283 282 281 281 281 279 278 276 275 275 277 279 276 276 275 275 276 277 281 281
287 287 286 287 287 287 289 289 288 285 284 283 282 281 282 281 282 283 279 278 277 278 279 279 280 282 282 281 281 279 278 276 276 274 277 275 274 274 271 276 276 276 275
Wind_Speed
3 3 2 2 3 1 1 3 4 5 6 7 8 8 8 7 7 4 4 17 21 22 15 14 15 16 16 18 18 17 19 20 20 21 22 23 23 23 24 24 24 24 24
4 4 3 1 1 2 2 2 4 4 5 6 7 7 7 6 6 5 4 5 15 19 21 12 13 14 15 13 15 17 19 17 18 19 19 20 20 20 21 22 22 22 23
4 5 3 3 4 2 1 2 6 6 5 5 6 5 5 6 5 5 4 3 5 13 18 20 13 12 11 14 14 14 16 17 17 18 17 18 19 19 19 20 20 20 21
4 4 4 2 0 3 3 3 5 5 4 4 4 3 3 4 5 5 4 4 4 5 9 15 18 14 12 11 12 12 14 14 15 15 15 17 17 17 18 18 18 18 19
3 4 4 3 2 3 4 3 5 5 5 4 4 3 3 2 3 4 4 4 4 4 4 8 12 17 10 9 10 10 11 13 13 13 13 14 15 16 16 16 16 16 17
3 4 4 4 3 4 4 4 6 4 4 5 5 4 2 1 0 2 4 3 3 3 4 5 5 6 11 9 8 8 10 12 12 11 12 13 13 14 14 15 15 16 16
5 4 4 5 4 5 5 7 5 7 4 5 4 2 1 1 1 1 2 3 4 2 2 2 2 2 4 8 7 6 8 9 10 10 10 11 11 12 13 13 13 14 15
6 6 6 5 5 5 6 6 8 6 3 7 3 2 3 3 5 5 4 4 5 4 4 3 2 1 1 1 4 5 5 7 7 8 8 9 10 10 11 12 12 13 13
7 7 7 5 6 6 7 6 10 11 7 8 9 3 2 4 4 4 6 5 6 5 5 6 5 4 3 2 4 2 3 4 5 6 6 6 8 8 9 10 11 11 12
9 9 8 7 7 7 9 8 9 10 8 7 5 7 4 1 4 4 4 6 6 6 7 5 5 5 6 4 2 2 3 2 2 4 4 4 5 6 7 8 9 10 11
10 9 9 9 8 8 9 10 9 11 10 8 8 4 6 3 3 3 4 5 6 7 7 7 7 6 7 5 5 5 5 6 4 2 1 2 4 4 5 6 7 8 10
7 10 9 10 9 8 10 9 11 12 11 10 9 10 8 5 6 4 3 3 6 7 8 7 8 7 7 7 8 6 8 9 8 6 4 3 2 4 4 5 6 7 8
7 9 10 9 8 9 10 9 10 10 11 11 13 9 10 10 3 4 4 3 4 4 6 7 8 8 8 8 8 10 12 12 11 9 8 6 6 6 7 6 6 8 9
8 9 9 10 11 10 9 9 8 8 10 11 14 12 9 10 8 8 5 5 3 5 5 4 8 8 8 7 8 17 7 15 12 11 10 9 9 9 9 9 8 9 10
8 9 10 9 10 10 9 8 8 9 9 9 9 11 10 8 7 8 7 5 9 7 9 10 6 11 9 8 9 8 8 15 14 12 11 11 11 10 11 12 12 11 12
14 10 10 11 10 10 9 9 8 8 8 7 7 9 9 7 7 8 9 9 9 10 9 7 10 6 10 8 9 9 9 8 15 14 13 12 12 12 12 13 14 14 14
12 13 11 11 11 11 10 10 10 9 10 10 9 9 9 7 6 5 6 6 7 8 10 1 2 6 11 9 8 7 7 7 7 16 16 14 14 14 14 15 16 16 17
12 13 13 12 11 12 11 12 12 11 12 12 11 10 10 7 8 7 5 8 7 6 6 6 4 5 7 10 8 8 7 6 6 10 15 15 15 15 16 16 18 18 18
14 13 13 13 12 12 13 12 12 12 12 12 12 12 11 10 8 6 7 6 5 4 4 3 3 2 3 7 8 6 7 6 6 11 14 16 17 18 17 18 19 19 20
13 13 14 15 14 14 13 14 12 12 12 12 12 11 11 11 11 9 8 7 4 4 4 4 3 3 4 4 5 6 6 6 6 6 10 11 12 14 16 16 19 19 21
12 13 14 15 15 13 11 14 13 13 13 12 12 11 10 10 14 12 8 8 8 6 5 6 4 3 5 4 9 5 6 3 5 4 4 5 6 6 7 14 14 17 21
12 12 13 14 15 11 14 18 16 12 13 13 12 12 11 11 13 18 17 15 13 11 10 7 6 6 8 6 4 5 4 3 2 5 4 5 4 6 7 5 16 19 21
12 12 13 13 14 14 18 17 21 13 12 12 13 11 11 9 12 12 19 19 16 18 13 8 8 7 5 6 5 6 6 4 3 3 1 6 6 8 7 8 20 20 22
12 11 12 12 13 13 17 18 20 15 13 13 13 13 12 12 13 13 11 11 10 10 12 7 5 4 4 5 6 4 4 3 2 4 3 5 6 8 6 7 19 22 23
12 12 11 12 13 13 16 17 16 13 14 15 12 12 13 13 17 23 13 13 11 9 12 15 12 9 8 9 7 4 3 3 4 4 4 6 4 6 6 9 9 20 19
12 10 12 12 13 14 16 16 16 10 14 10 11 12 17 15 19 23 14 12 12 12 10 8 8 10 10 8 12 8 4 6 5 2 2 3 2 2 4 3 2 2 5
Wind_Direction
352 314 358 342 333 44 88 110 128 102 92 81 72 68 64 51 40 41 65 34 30 29 60 67 65 67 70 76 68 68 68 62 65 62 60 56 54 54 56 55 55 56 56
334 317 324 352 321 48 9 159 118 135 100 97 83 73 70 64 51 38 44 54 36 34 32 60 69 69 73 68 82 72 73 71 66 63 64 67 62 58 56 54 54 54 54
335 307 300 299 93 105 294 77 91 71 72 73 77 65 83 66 59 56 49 43 34 50 35 29 42 67 70 71 66 75 72 69 68 64 63 62 63 62 57 57 54 50 53
307 283 279 266 217 130 176 136 129 132 131 130 113 86 60 79 73 65 59 45 36 29 44 33 31 37 67 72 69 70 75 75 72 71 68 62 61 61 58 56 54 53 49
258 277 283 281 255 186 178 171 157 152 148 134 122 90 72 41 85 89 99 93 73 54 33 27 28 30 38 70 80 83 78 77 73 70 70 69 65 61 59 53 53 48 51
245 271 266 260 249 250 191 156 147 129 150 156 136 111 100 70 271 125 128 119 88 74 52 26 10 20 24 53 69 79 83 78 72 67 66 64 65 61 60 55 47 46 41
214 232 252 257 238 240 240 170 125 140 144 135 123 131 135 220 240 190 158 151 148 139 112 69 23 22 2 34 41 78 82 81 76 71 65 62 55 54 52 52 48 41 38
220 227 227 236 246 251 241 156 152 158 131 187 188 164 195 208 219 206 194 194 178 172 171 168 171 170 270 3 29 31 72 78 78 75 65 58 58 51 48 42 39 34 33
227 226 239 233 227 232 237 206 177 179 188 196 222 237 174 227 150 191 217 209 202 198 188 187 189 198 205 193 239 128 38 67 80 75 66 61 57 53 55 47 36 26 22
220 220 224 231 222 222 228 232 179 191 192 194 211 237 232 284 194 192 206 216 222 216 201 202 196 202 203 214 252 24 220 144 94 93 83 68 61 52 41 40 33 21 12
220 218 221 228 226 220 226 226 214 194 206 191 201 160 203 205 225 216 186 197 218 216 210 202 199 201 203 214 198 176 236 207 195 181 98 51 40 29 22 33 19 9 358
225 227 227 231 235 235 228 229 226 226 210 219 205 204 192 177 190 180 214 172 202 203 205 203 207 202 193 199 209 164 203 225 212 205 213 253 299 323 339 353 358 353 347
231 229 221 224 230 238 237 233 235 231 231 219 220 218 218 224 175 191 174 174 192 176 194 210 209 204 198 198 185 188 203 221 224 221 220 230 243 264 285 300 320 327 330
250 237 216 219 225 237 238 236 236 241 237 236 231 220 226 224 211 209 192 164 195 209 198 195 206 209 200 197 196 183 199 216 223 226 230 233 243 251 267 278 289 299 307
261 252 242 225 226 234 235 236 237 237 243 253 252 250 238 232 218 220 221 201 223 217 217 205 190 199 205 190 182 183 201 200 216 227 233 241 242 249 259 269 276 284 293
270 254 252 245 231 228 227 230 236 239 240 241 247 252 249 247 233 219 222 222 225 234 252 191 201 166 191 195 188 195 210 200 206 223 231 240 250 254 260 266 270 277 285
270 267 254 250 243 228 216 218 223 227 225 228 230 229 241 242 243 240 239 231 228 228 241 5 152 152 181 193 185 195 217 205 226 222 228 235 245 253 262 267 266 270 280
266 265 259 248 241 239 228 220 218 220 222 222 225 224 225 218 228 234 231 229 229 227 231 224 185 164 193 196 197 192 214 214 228 229 225 235 249 253 256 265 264 266 274
270 265 259 247 244 235 227 227 227 222 221 224 223 219 217 208 206 212 223 230 225 218 229 268 161 167 192 190 205 202 208 215 226 237 239 245 251 259 262 265 260 262 272
270 264 259 254 245 235 229 225 213 221 229 227 222 222 216 212 200 194 203 211 190 193 205 222 166 177 184 181 195 205 212 219 236 223 229 237 251 261 265 259 261 265 271
272 269 266 261 254 245 236 219 216 218 220 223 221 218 213 208 204 198 190 190 178 178 195 203 199 169 190 168 203 197 222 203 211 214 242 242 234 227 230 246 258 264 269
273 270 265 263 262 255 247 233 224 222 222 222 220 214 211 201 202 211 206 199 185 181 197 198 200 201 203 201 176 198 180 168 225 198 214 250 239 248 257 251 261 267 271
274 271 267 264 262 259 256 235 227 233 230 225 224 215 206 204 200 203 213 208 205 204 204 196 202 198 185 180 157 183 192 194 204 162 233 256 248 257 259 262 267 271 270
272 268 266 263 262 260 253 244 228 233 240 236 225 216 210 203 197 197 198 202 207 204 213 201 202 174 151 155 175 173 186 221 278 267 217 257 245 253 263 269 273 272 276
276 271 265 264 261 262 251 249 231 232 234 235 226 217 209 207 202 199 192 196 199 216 221 211 206 204 193 190 176 154 189 191 241 235 211 252 248 275 265 265 264 270 272
273 272 268 260 261 267 262 251 235 239 247 237 227 220 212 208 204 202 200 200 201 205 199 191 212 217 212 213 223 219 206 228 231 272 213 215 218 311 299 226 188 273 276